[[{"header":{"parameterUnit":"m.s-1","parameterCategory":2,"la1":30.2991,"la2":30.254,"lo1":-89.0895,"lo2":-89.0444,"dy":0.0017,"dx":0.0017,"nx":28,"ny":28,"refTime":"2024-07-16T03:00:00:Z","depth":"0","parameterNumber":2,"parameterNumberName":"U-component_of_CURRENTS"},"data":[0,0,0,0,0,0,0,0,0,0,0,0,0,0,0,0,0,0,0,0,0,0,0,0,0,0,0,0,0,0,0,0,0,0,0,0,0,0,0,0,0,0,0,0,0,0,0,0,0,0,0,0,0,0,0,0,0,0,0.3283,0.3283,0,0.323,0.3229,0.3229,0.3214,0.3214,0.3214,0.3214,0.3295,0.3297,0.33,0,0,0,0,0,0,0,0,0,0,0,0,0,0.3316,0.3316,0.3284,0.3283,0.3282,0.323,0.3229,0.3229,0.3214,0.3214,0.3214,0.3214,0.3295,0.3297,0.33,0,0,0,0,0,0,0,0,0,0,0,0,0,0.329,0.3317,0.3284,0.3265,0.3263,0.323,0.3229,0.3229,0.3214,0.3214,0.3214,0.3214,0.3294,0.3297,0.33,0.3321,0,0,0.331,0.3312,0,0,0,0,0,0,0,0,0.3291,0.3289,0.3269,0.3266,0.3264,0.3225,0.327,0.3265,0.3214,0.3236,0.3214,0.3214,0.3282,0.3286,0.328,0.3325,0.3328,0.331,0.3312,0.3314,0.3315,0,0,0,0,0,0,0,0.3293,0.3291,0.3266,0.3268,0.3264,0.324,0.3237,0.3269,0.3266,0.3234,0.3232,0.3221,0.3282,0.3276,0.3282,0.333,0.331,0.3313,0.3315,0.3317,0.3486,0.3489,0,0,0,0,0,0,0.3296,0.3293,0.3268,0.3264,0.3274,0.3239,0.3236,0.3241,0.3262,0.3263,0.3221,0.322,0.3271,0.3278,0.3285,0.3362,0.3314,0.3317,0.3319,0.3484,0.3487,0.349,0,0,0,0,0,0,0.3297,0.3295,0.327,0.3273,0.3268,0.3239,0.3244,0.324,0.3232,0.3249,0.3254,0.3217,0.3271,0.328,0.3347,0.3364,0.3318,0.3321,0.3481,0.3485,0.3488,0.3486,0,0,0,0,0,0,0.3299,0.3296,0.33,0.3274,0.3268,0.3258,0.3243,0.3238,0.3223,0.3222,0.3248,0.3255,0.3272,0.3342,0.335,0.3367,0.3324,0.3478,0.3483,0.3487,0.3483,0.3489,0.3494,0,0,0,0,0,0.33,0.3299,0.3301,0.3297,0.3275,0.3257,0.3253,0.3233,0.3223,0.3225,0.3265,0.3254,0.3378,0.3347,0.3356,0.3374,0.3475,0.3481,0.3487,0.348,0.3488,0.3494,0,0,0,0,0,0,0.3316,0.3296,0.3298,0.3292,0.3282,0.3254,0.3247,0.3233,0.3259,0.3267,0.3286,0.3298,0.3369,0.3381,0.3346,0.3443,0.3425,0.3432,0.3417,0.3424,0.343,0.343,0.3327,0,0,0,0,0,0.3322,0.3314,0.3301,0.3296,0.3295,0.3274,0.3262,0.3251,0.3264,0.3272,0.3289,0.3333,0.3398,0.3417,0.347,0.3512,0.3555,0.3535,0.354,0.3545,0.3555,0.3662,0.3678,0.3508,0.3508,0.3508,0,0,0.3318,0.3311,0.3303,0.3297,0.329,0.3288,0.3269,0.3256,0.3258,0.3282,0.3306,0.336,0.3422,0.3484,0.3514,0.3491,0.3615,0.3552,0.3555,0.3564,0.367,0.3686,0.37,0.3512,0.3512,0.3511,0,0,0.3306,0.3316,0.3306,0.3306,0.3296,0.3292,0.329,0.3274,0.3277,0.3306,0.3348,0.342,0.3468,0.3531,0.3569,0.3642,0.3656,0.3648,0.3657,0.376,0.3774,0.3787,0.3848,0.3866,0.3633,0.3633,0.3633,0,0.3304,0.3299,0.33,0.33,0.3297,0.3297,0.3293,0.3301,0.3306,0.3326,0.3318,0.3451,0.3497,0.3605,0.3634,0.3652,0.3699,0.3615,0.3765,0.3779,0.3793,0.3852,0.3873,0.3634,0.3634,0.3634,0.3634,0,0.3286,0.329,0.3289,0.3295,0.3298,0.3295,0.3309,0.3321,0.3324,0.3334,0.3426,0.3503,0.3579,0.3609,0.3642,0.3763,0.3762,0.377,0.3737,0.3809,0.3867,0.3889,0.3635,0.3635,0.3634,0.3634,0,0,0.3263,0.327,0.3272,0.3271,0.3296,0.3287,0.3322,0.3347,0.3367,0.3405,0.3447,0.3575,0.361,0.3661,0.3718,0.3803,0.3935,0.3819,0.3824,0.386,0.414,0.4038,0.4051,0.3967,0.3971,0.3974,0.4136,0,0.325,0.3234,0.3254,0.3253,0.3249,0.3284,0.331,0.3341,0.3376,0.3422,0.3521,0.3592,0.3631,0.3675,0.3775,0.3915,0.3995,0.3889,0.4082,0.4088,0.3973,0.4074,0.3877,0.3996,0.4157,0.416,0.4163,0,0.3235,0.3222,0.3207,0.3223,0.3228,0.3235,0.3281,0.3305,0.3394,0.3426,0.3524,0.3592,0.3751,0.3754,0.4016,0.3947,0.4045,0.4133,0.4142,0.4063,0.4026,0.3957,0.4029,0.3827,0.4196,0.4193,0.4191,0,0.3196,0.3198,0.3177,0.3181,0.32,0.3211,0.3231,0.3302,0.3332,0.3435,0.3475,0.3651,0.374,0.3919,0.4094,0.4072,0.4356,0.4345,0.434,0.4333,0.4212,0.4186,0.4096,0.4518,0.4518,0.4517,0.4517,0,0.3179,0.3165,0.315,0.3137,0.3127,0.3161,0.3181,0.3229,0.3309,0.3357,0.3475,0.3559,0.379,0.3962,0.4118,0.4297,0.4382,0.4369,0.4384,0.4202,0.4175,0.403,0.3997,0.4523,0.4522,0.4521,0.452,0,0.3153,0.3141,0.3116,0.311,0.3105,0.31,0.3135,0.3153,0.3238,0.3311,0.3347,0.3528,0.374,0.3946,0.4233,0.4306,0.4366,0.4524,0.4268,0.4249,0.4015,0.3992,0.3928,0.3852,0.455,0.4548,0.4547,0,0.3139,0.3114,0.308,0.3053,0.3049,0.3043,0.304,0.3108,0.3141,0.3294,0.3333,0.3528,0.3652,0.4001,0.4187,0.4415,0.4305,0.4323,0.4244,0.3986,0.3975,0.3863,0.3797,0.4089,0.4085,0.4081,0.4078,0,0.3103,0.3085,0.3054,0.2999,0.2973,0.296,0.297,0.2986,0.3079,0.3146,0.3262,0.3367,0.3653,0.3768,0.4019,0.4164,0.4068,0.4245,0.407,0.3686,0.3475,0.341,0.3972,0.4043,0.4046,0.4049,0.4051,0.4052,0.3063,0.3034,0.2975,0.2927,0.2896,0.2867,0.2839,0.288,0.2915,0.2997,0.3145,0.324,0.3363,0.3685,0.3815,0.3768,0.3858,0.3639,0.3661,0.3591,0.3413,0.3866,0.3889,0.3891,0.3893,0.3895,0.3897,0,0.2987,0.2948,0.2901,0.282,0.2757,0.2775,0.2772,0.2743,0.2752,0.2866,0.2946,0.2976,0.3036,0.3174,0.3229,0.317,0.3132,0.3063,0.2846,0.2841,0.331,0.3175,0.2929,0.2929,0.2929,0.2929,0.293,0.293,0.2931,0.2851,0.2822,0.2685,0.2634,0.2544,0.2527,0.252,0.2574,0.2564,0.2555,0.2603,0.2671,0.268,0.2621,0.262,0.2474,0.2348,0.241,0.2678,0.273,0.2781,0.2637,0.2282,0.2282,0.1782,0.1779,0.1776]},{"header":{"parameterUnit":"m.s-1","parameterCategory":2,"la1":30.2991,"la2":30.254,"lo1":-89.0895,"lo2":-89.0444,"dy":0.0017,"dx":0.0017,"nx":28,"ny":28,"refTime":"2024-07-16T03:00:00:Z","depth":"0","parameterNumber":3,"parameterNumberName":"V-component_of_CURRENTS"},"data":[0,0,0,0,0,0,0,0,0,0,0,0,0,0,0,0,0,0,0,0,0,0,0,0,0,0,0,0,0,0,0,0,0,0,0,0,0,0,0,0,0,0,0,0,0,0,0,0,0,0,0,0,0,0,0,0,0,0,0.1275,0.1274,0,0.1225,0.1225,0.1225,0.1206,0.1206,0.1205,0.1205,0.1108,0.1106,0.1104,0,0,0,0,0,0,0,0,0,0,0,0,0,0.1299,0.13,0.1275,0.1274,0.1273,0.1225,0.1225,0.1225,0.1206,0.1206,0.1205,0.1205,0.1109,0.1107,0.1104,0,0,0,0,0,0,0,0,0,0,0,0,0,0.128,0.13,0.1276,0.1253,0.125,0.1225,0.1225,0.1225,0.1206,0.1206,0.1205,0.1204,0.111,0.1107,0.1104,0.1098,0,0,0.1094,0.1093,0,0,0,0,0,0,0,0,0.1281,0.128,0.1257,0.1254,0.125,0.1215,0.1197,0.1178,0.1207,0.123,0.1205,0.1204,0.1135,0.113,0.1133,0.1094,0.109,0.1094,0.1092,0.109,0.1089,0,0,0,0,0,0,0,0.1283,0.1282,0.1263,0.1256,0.1252,0.1225,0.1223,0.1194,0.1192,0.1228,0.1225,0.1208,0.1134,0.1136,0.113,0.1088,0.1094,0.1091,0.1089,0.1088,0.1046,0.1046,0,0,0,0,0,0,0.1278,0.1284,0.1264,0.126,0.1256,0.1225,0.1222,0.1233,0.1194,0.1185,0.1209,0.1207,0.1142,0.1134,0.1127,0.1165,0.109,0.1087,0.1086,0.1045,0.1046,0.1047,0,0,0,0,0,0,0.128,0.1279,0.1266,0.1263,0.1259,0.1225,0.1237,0.1232,0.1233,0.1178,0.117,0.1214,0.1141,0.1131,0.1133,0.1159,0.1086,0.1083,0.1044,0.1045,0.1046,0.1211,0,0,0,0,0,0,0.1281,0.128,0.1296,0.1264,0.1258,0.1271,0.1236,0.1231,0.122,0.1219,0.1179,0.117,0.114,0.1139,0.113,0.1153,0.1081,0.1043,0.1044,0.1046,0.1204,0.1217,0.1228,0,0,0,0,0,0.1283,0.131,0.1298,0.1295,0.128,0.1271,0.1268,0.1244,0.1221,0.124,0.1222,0.1171,0.114,0.1138,0.1127,0.115,0.1042,0.1044,0.1046,0.1199,0.1215,0.1228,0,0,0,0,0,0,0.1324,0.1309,0.1295,0.1316,0.13,0.1266,0.1282,0.1249,0.125,0.1253,0.1197,0.1188,0.12,0.1145,0.1143,0.1137,0.1075,0.1075,0.1195,0.121,0.1222,0.1224,0.1078,0,0,0,0,0,0.134,0.1362,0.1332,0.1347,0.1352,0.1317,0.131,0.1291,0.1275,0.1275,0.1244,0.121,0.1198,0.1182,0.1165,0.1162,0.1114,0.1161,0.1174,0.1185,0.1177,0.1147,0.1156,0.1052,0.1052,0.1052,0,0,0.1345,0.1349,0.1353,0.1358,0.1354,0.1375,0.1316,0.1321,0.133,0.1263,0.1286,0.1262,0.121,0.1227,0.1222,0.1184,0.1193,0.1187,0.1197,0.1183,0.115,0.116,0.1169,0.1054,0.1053,0.1053,0,0,0.1377,0.1394,0.1422,0.1431,0.1429,0.1422,0.1423,0.1402,0.1395,0.1404,0.1367,0.1364,0.1326,0.1312,0.1292,0.135,0.1269,0.1326,0.1382,0.1355,0.1364,0.1371,0.135,0.1354,0.1321,0.1321,0.1321,0,0.1377,0.1423,0.1424,0.1465,0.1477,0.1449,0.1479,0.1478,0.1453,0.1445,0.1431,0.1399,0.137,0.1377,0.1405,0.1381,0.1345,0.1342,0.1374,0.1379,0.1384,0.136,0.1362,0.1329,0.1328,0.1327,0.1326,0,0.1429,0.1473,0.1502,0.1551,0.157,0.1598,0.1594,0.1606,0.159,0.1565,0.1568,0.1545,0.1511,0.1509,0.1479,0.149,0.145,0.1409,0.1347,0.1405,0.1376,0.1375,0.1341,0.1338,0.1335,0.1333,0,0,0.1406,0.151,0.1521,0.1564,0.162,0.1636,0.1681,0.169,0.1703,0.1687,0.1689,0.1687,0.165,0.1624,0.1586,0.1565,0.1591,0.1503,0.1497,0.1499,0.1532,0.1511,0.1507,0.1554,0.1554,0.1554,0.1511,0,0.1439,0.1527,0.1574,0.1661,0.1711,0.1732,0.1773,0.178,0.1779,0.1784,0.1743,0.1744,0.1698,0.1694,0.1671,0.1619,0.159,0.1606,0.1457,0.1453,0.1442,0.1506,0.1454,0.1411,0.1509,0.1509,0.1509,0,0.1479,0.1537,0.1617,0.1723,0.1747,0.1791,0.1852,0.1884,0.1889,0.1879,0.1866,0.1831,0.1822,0.1764,0.1698,0.1708,0.1624,0.1573,0.1569,0.1484,0.143,0.1359,0.1404,0.1207,0.1506,0.1506,0.1507,0,0.1459,0.1576,0.164,0.1677,0.1779,0.1812,0.1865,0.1899,0.1924,0.1937,0.195,0.1918,0.1915,0.1822,0.1735,0.1709,0.165,0.1595,0.1491,0.1488,0.1379,0.1367,0.1225,0.1515,0.1515,0.1515,0.1515,0,0.1484,0.1536,0.1637,0.1669,0.1747,0.1823,0.1888,0.1926,0.1972,0.201,0.1995,0.2023,0.1926,0.1883,0.1769,0.1655,0.1673,0.1511,0.1479,0.1437,0.1431,0.1199,0.1143,0.1513,0.1513,0.1514,0.1514,0,0.1451,0.1514,0.1595,0.1704,0.1738,0.1794,0.1905,0.1955,0.2005,0.2058,0.2068,0.21,0.2068,0.196,0.1835,0.1713,0.1513,0.1529,0.1499,0.1464,0.1174,0.1132,0.1033,0.1015,0.1405,0.1405,0.1404,0,0.144,0.1479,0.1598,0.1647,0.1696,0.1786,0.1852,0.1942,0.2006,0.211,0.2145,0.2151,0.2167,0.2014,0.1802,0.1607,0.1486,0.1417,0.1349,0.1161,0.1089,0.1092,0.1085,0.1275,0.1274,0.1272,0.1271,0,0.1425,0.1463,0.1529,0.1623,0.1702,0.1799,0.1908,0.1954,0.2071,0.214,0.2246,0.2278,0.2154,0.1965,0.1718,0.1579,0.1326,0.1382,0.1183,0.098,0.0978,0.0943,0.1307,0.1259,0.1261,0.1262,0.1262,0.1263,0.1404,0.1444,0.1529,0.1617,0.1714,0.1819,0.1878,0.1997,0.2105,0.2221,0.2296,0.2363,0.2068,0.1743,0.158,0.1141,0.1217,0.0947,0.0915,0.0937,0.0908,0.1263,0.1182,0.1183,0.1184,0.1184,0.1185,0,0.1387,0.144,0.1524,0.1634,0.1722,0.178,0.1924,0.1986,0.2103,0.2237,0.2335,0.2196,0.1838,0.1504,0.0919,0.0674,0.0667,0.0525,0.0472,0.0492,0.0764,0.074,0.0566,0.0566,0.0567,0.0567,0.0567,0.0567,0.1375,0.1436,0.1486,0.1615,0.1687,0.1779,0.1847,0.196,0.2078,0.2184,0.2201,0.2224,0.1901,0.0898,0.0303,0.0215,0.0107,0.0068,0.0053,0.014,0.0175,0.0208,0.0165,-0.0126,-0.0126,-0.0212,-0.0214,-0.0215]}],[{"header":{"parameterUnit":"m.s-1","parameterCategory":2,"la1":30.2991,"la2":30.254,"lo1":-89.0895,"lo2":-89.0444,"dy":0.0017,"dx":0.0017,"nx":28,"ny":28,"refTime":"2024-07-16T03:00:00:Z","depth":"2","parameterNumber":2,"parameterNumberName":"U-component_of_CURRENTS"},"data":[0,0,0,0,0,0,0,0,0,0,0,0,0,0,0,0,0,0,0,0,0,0,0,0,0,0,0,0,0,0,0,0,0,0,0,0,0,0,0,0,0,0,0,0,0,0,0,0,0,0,0,0,0,0,0,0,0,0,0.2607,0.2609,0,0.2696,0.2696,0.2696,0.2664,0.2663,0.2662,0.2662,0.2737,0.2739,0.2742,0,0,0,0,0,0,0,0,0,0,0,0,0,0.2573,0.2571,0.2606,0.2609,0.2612,0.2696,0.2696,0.2696,0.2664,0.2663,0.2662,0.2661,0.2736,0.2739,0.2742,0,0,0,0,0,0,0,0,0,0,0,0,0,0.2602,0.257,0.2606,0.2617,0.262,0.2696,0.2696,0.2696,0.2664,0.2663,0.2662,0.2661,0.2735,0.2738,0.2742,0.2784,0,0,0.2754,0.2755,0,0,0,0,0,0,0,0,0.26,0.2601,0.2613,0.2617,0.262,0.2681,0.2713,0.273,0.2664,0.2631,0.2662,0.2661,0.2728,0.2732,0.2729,0.2787,0.279,0.2754,0.2757,0.2758,0.2759,0,0,0,0,0,0,0,0.2598,0.2599,0.2626,0.2616,0.2621,0.2676,0.2675,0.2715,0.2671,0.2634,0.2635,0.267,0.2727,0.2725,0.2731,0.2792,0.2754,0.2757,0.276,0.2761,0.2914,0.2915,0,0,0,0,0,0,0.261,0.2595,0.2624,0.2631,0.2625,0.2677,0.2677,0.265,0.2671,0.2678,0.2671,0.2669,0.2719,0.2726,0.2733,0.2767,0.2758,0.2762,0.2764,0.2912,0.2914,0.2916,0,0,0,0,0,0,0.2608,0.2609,0.262,0.2632,0.2639,0.2679,0.265,0.2653,0.2669,0.2702,0.2705,0.2689,0.2719,0.2728,0.2809,0.277,0.2763,0.2767,0.291,0.2913,0.2915,0.2845,0,0,0,0,0,0,0.2605,0.2606,0.2592,0.263,0.2639,0.2674,0.2653,0.2656,0.2699,0.2696,0.2719,0.2723,0.2719,0.2803,0.2812,0.2775,0.277,0.2908,0.2911,0.2914,0.2845,0.2845,0.2845,0,0,0,0,0,0.2602,0.2531,0.2588,0.2594,0.2615,0.2677,0.2685,0.2703,0.2701,0.2711,0.275,0.2724,0.2828,0.281,0.2819,0.2782,0.2906,0.291,0.2914,0.2845,0.2845,0.2845,0,0,0,0,0,0,0.2494,0.2526,0.2587,0.253,0.2632,0.2677,0.2659,0.2721,0.2756,0.2743,0.2772,0.2781,0.2822,0.2846,0.2825,0.2843,0.2853,0.2859,0.2797,0.2797,0.2797,0.2812,0.2773,0,0,0,0,0,0.2483,0.2455,0.2543,0.2529,0.254,0.2624,0.2653,0.2698,0.2745,0.2756,0.278,0.281,0.2844,0.2861,0.2889,0.2925,0.2914,0.2906,0.2905,0.2904,0.2929,0.2905,0.2903,0.2929,0.2929,0.2929,0,0,0.2475,0.2473,0.2479,0.2514,0.255,0.2592,0.2628,0.2667,0.2721,0.2763,0.2785,0.2817,0.2862,0.288,0.2898,0.2895,0.2883,0.2909,0.2907,0.2934,0.2908,0.2905,0.2902,0.2932,0.2931,0.2931,0,0,0.2433,0.24,0.2385,0.2436,0.2518,0.2563,0.2591,0.2659,0.2678,0.2783,0.2783,0.2814,0.2894,0.2876,0.2894,0.2928,0.2888,0.2931,0.2928,0.2902,0.2898,0.2895,0.2821,0.2812,0.2921,0.2921,0.2921,0,0.245,0.2398,0.241,0.241,0.2439,0.2551,0.2578,0.2628,0.2738,0.2759,0.279,0.2879,0.2885,0.2902,0.29,0.2915,0.29,0.2909,0.2895,0.2893,0.2891,0.2816,0.2807,0.2918,0.2918,0.2918,0.2919,0,0.2411,0.2391,0.2358,0.2397,0.2439,0.246,0.2553,0.259,0.2655,0.2738,0.28,0.2842,0.2899,0.2879,0.2909,0.2886,0.2875,0.2893,0.2878,0.2882,0.2805,0.2796,0.2914,0.2915,0.2916,0.2916,0,0,0.2398,0.2354,0.2351,0.2372,0.2416,0.2462,0.2491,0.2572,0.2617,0.2722,0.2771,0.282,0.2868,0.2895,0.2901,0.2876,0.2803,0.2886,0.2886,0.2781,0.272,0.276,0.2754,0.2822,0.2821,0.2821,0.2649,0,0.239,0.237,0.2343,0.238,0.2374,0.2424,0.2461,0.2557,0.2636,0.2704,0.2762,0.2824,0.2869,0.2885,0.2881,0.2827,0.2791,0.2847,0.2763,0.276,0.2769,0.275,0.244,0.2269,0.264,0.2639,0.2638,0,0.237,0.2339,0.2345,0.2353,0.2352,0.2415,0.2464,0.2524,0.2621,0.2676,0.276,0.2825,0.2819,0.2865,0.28,0.2841,0.2797,0.2754,0.2746,0.2817,0.2788,0.2342,0.2239,0.2624,0.2625,0.2626,0.2627,0,0.2363,0.2346,0.2342,0.2349,0.2381,0.2401,0.2446,0.2534,0.2562,0.2663,0.2692,0.276,0.2756,0.2755,0.2727,0.2747,0.2648,0.2644,0.2633,0.2632,0.2373,0.2353,0.2606,0.2606,0.2607,0.2607,0.2608,0,0.2331,0.2334,0.2356,0.2357,0.237,0.2418,0.2455,0.2508,0.2579,0.2585,0.2698,0.2697,0.2735,0.271,0.2701,0.2653,0.2624,0.2636,0.2606,0.234,0.232,0.266,0.2669,0.2601,0.2602,0.2603,0.2604,0,0.2308,0.2331,0.2317,0.2341,0.237,0.239,0.2438,0.2442,0.2536,0.2533,0.2549,0.2609,0.2582,0.2628,0.2562,0.2576,0.2539,0.2532,0.2215,0.2157,0.2527,0.2534,0.2459,0.2459,0.2459,0.246,0.246,0,0.2284,0.2265,0.2293,0.2289,0.23,0.2335,0.2329,0.2416,0.2391,0.2452,0.2408,0.2448,0.2443,0.2431,0.2385,0.2364,0.2522,0.2141,0.216,0.2541,0.2519,0.2526,0.2533,0.1722,0.1716,0.1711,0.1708,0,0.2154,0.2178,0.2158,0.2162,0.2169,0.2161,0.217,0.2157,0.2199,0.2219,0.2211,0.2241,0.2214,0.2093,0.2139,0.2084,0.2137,0.2053,0.2464,0.1886,0.1855,0.1833,0.186,0.1665,0.1669,0.1672,0.1675,0.1676,0.2041,0.2007,0.199,0.2016,0.1995,0.1979,0.195,0.193,0.1917,0.1869,0.195,0.1933,0.187,0.1821,0.1775,0.1757,0.1893,0.1824,0.1832,0.1847,0.1872,0.1853,0.1659,0.1663,0.1667,0.167,0.1672,0,0.1891,0.1908,0.1846,0.1844,0.1769,0.1869,0.1808,0.1736,0.1677,0.1642,0.1639,0.1449,0.1395,0.1468,0.1328,0.1338,0.1238,0.1351,0.119,0.1229,0.1264,0.1258,0.0882,0.0882,0.0881,0.0881,0,0,0.1817,0.1733,0.1731,0.1629,0.1662,0.1576,0.1563,0.1473,0.1422,0.1265,0.1237,0.1251,0.1365,0.1117,0.1038,0.0991,0.1115,0.093,0.1528,0.137,0.1407,0.1464,0.1492,0,0,0,0,0]},{"header":{"parameterUnit":"m.s-1","parameterCategory":2,"la1":30.2991,"la2":30.254,"lo1":-89.0895,"lo2":-89.0444,"dy":0.0017,"dx":0.0017,"nx":28,"ny":28,"refTime":"2024-07-16T03:00:00:Z","depth":"2","parameterNumber":3,"parameterNumberName":"V-component_of_CURRENTS"},"data":[0,0,0,0,0,0,0,0,0,0,0,0,0,0,0,0,0,0,0,0,0,0,0,0,0,0,0,0,0,0,0,0,0,0,0,0,0,0,0,0,0,0,0,0,0,0,0,0,0,0,0,0,0,0,0,0,0,0,0.0226,0.023,0,0.0355,0.0353,0.0352,0.0281,0.0281,0.0281,0.0281,0.0208,0.0207,0.0205,0,0,0,0,0,0,0,0,0,0,0,0,0,0.0153,0.015,0.0225,0.023,0.0235,0.0355,0.0353,0.0352,0.0281,0.0281,0.0281,0.028,0.0209,0.0207,0.0205,0,0,0,0,0,0,0,0,0,0,0,0,0,0.0189,0.0149,0.0225,0.0241,0.0246,0.0355,0.0353,0.0351,0.0281,0.0281,0.0281,0.028,0.021,0.0207,0.0205,0.0196,0,0,0.0197,0.0196,0,0,0,0,0,0,0,0,0.0186,0.0186,0.0234,0.0241,0.0247,0.0333,0.0304,0.0302,0.0282,0.023,0.0281,0.028,0.0255,0.0249,0.0226,0.0193,0.019,0.0197,0.0195,0.0194,0.0193,0,0,0,0,0,0,0,0.0183,0.0183,0.024,0.024,0.0248,0.0326,0.0324,0.0302,0.0211,0.0235,0.0239,0.031,0.0252,0.0228,0.0224,0.0189,0.0197,0.0194,0.0193,0.0192,0.0156,0.0157,0,0,0,0,0,0,0.0227,0.0178,0.0237,0.0248,0.0256,0.0329,0.0326,0.0276,0.0216,0.0219,0.0311,0.0308,0.0233,0.0227,0.0221,0.0184,0.0194,0.0192,0.019,0.0156,0.0157,0.0157,0,0,0,0,0,0,0.0223,0.0226,0.0232,0.0253,0.0264,0.0332,0.0277,0.028,0.0298,0.0283,0.0274,0.0336,0.0232,0.0224,0.0257,0.0182,0.0191,0.0188,0.0155,0.0156,0.0157,0.0127,0,0,0,0,0,0,0.0217,0.0219,0.0218,0.0251,0.0265,0.0337,0.0282,0.0284,0.0358,0.0354,0.0302,0.0292,0.0231,0.0261,0.0254,0.0179,0.0186,0.0154,0.0156,0.0157,0.0127,0.0126,0.0126,0,0,0,0,0,0.0212,0.0151,0.0212,0.0226,0.0247,0.0345,0.0355,0.0383,0.0361,0.0386,0.0361,0.0295,0.026,0.0263,0.0253,0.0174,0.0154,0.0155,0.0156,0.0127,0.0126,0.0126,0,0,0,0,0,0,0.0084,0.0145,0.021,0.0165,0.0305,0.0347,0.0343,0.0415,0.041,0.0392,0.0339,0.033,0.0324,0.0287,0.0291,0.0174,0.0181,0.0181,0.0161,0.016,0.016,0.0243,0.0184,0,0,0,0,0,0.0083,0.0071,0.0193,0.0189,0.021,0.0301,0.035,0.042,0.044,0.0436,0.0393,0.0344,0.0315,0.0279,0.0259,0.0212,0.016,0.0149,0.0149,0.0148,0.0214,0.0029,0.0016,0.0161,0.0161,0.0161,0,0,0.006,0.0091,0.0098,0.0176,0.0211,0.0273,0.031,0.0397,0.0471,0.043,0.0404,0.0373,0.0323,0.0265,0.0249,0.022,0.0084,0.015,0.0149,0.0217,0.0028,0.0013,0.0,0.0162,0.0162,0.0162,0,0,0.0027,-0.001,0.0002,0.007,0.0222,0.0282,0.0333,0.0409,0.0432,0.0533,0.0449,0.0406,0.0391,0.0272,0.0234,0.0234,0.0122,0.0197,0.0208,0.0024,0.0009,-0.0004,-0.0082,-0.0102,0.0149,0.0149,0.0149,0,0.0056,0.0022,0.0046,0.0069,0.0118,0.028,0.0333,0.0393,0.0502,0.0508,0.0548,0.0459,0.0394,0.0269,0.0259,0.0223,0.0149,0.0197,0.0017,0.0003,-0.0011,-0.0088,-0.011,0.0148,0.0148,0.0148,0.0148,0,0.0037,0.0034,0.0004,0.008,0.0135,0.0204,0.0318,0.0379,0.0466,0.054,0.0534,0.0473,0.0422,0.0336,0.0319,0.0147,0.014,0.0061,0.0005,-0.0028,-0.0105,-0.0128,0.0146,0.0146,0.0147,0.0147,0,0,0.0056,0.0031,0.0034,0.0076,0.0144,0.0219,0.026,0.0379,0.0442,0.0517,0.0534,0.0455,0.0451,0.0413,0.0298,0.0127,-0.0049,0.0066,0.0057,-0.0026,-0.0388,-0.0229,-0.0238,-0.0194,-0.0198,-0.0201,-0.0403,0,0.009,0.0137,0.0093,0.0167,0.0179,0.0235,0.0265,0.0382,0.0492,0.0538,0.049,0.0495,0.0467,0.0434,0.027,0.0031,-0.0107,0.0021,-0.0321,-0.0327,-0.0201,-0.0259,-0.0235,-0.0398,-0.0425,-0.0429,-0.0432,0,0.0099,0.0124,0.0177,0.0203,0.0204,0.0296,0.0376,0.0446,0.0507,0.0567,0.0568,0.0572,0.0393,0.0387,0.0012,0.009,-0.009,-0.0271,-0.0287,-0.0123,-0.0209,-0.0367,-0.0438,-0.047,-0.0467,-0.0464,-0.0462,0,0.0143,0.018,0.0238,0.0241,0.0289,0.0342,0.0415,0.048,0.0506,0.06,0.0593,0.0507,0.0392,0.018,-0.0056,-0.0066,-0.0451,-0.055,-0.0558,-0.0548,-0.057,-0.0552,-0.0779,-0.0778,-0.0778,-0.0777,-0.0777,0,0.0172,0.0217,0.03,0.033,0.0415,0.0421,0.0522,0.0589,0.0614,0.0585,0.0618,0.0554,0.0319,0.0118,-0.0062,-0.0326,-0.0461,-0.0508,-0.0597,-0.057,-0.0551,-0.0638,-0.0619,-0.0785,-0.0783,-0.0782,-0.0781,0,0.0189,0.0244,0.0284,0.037,0.0437,0.0499,0.0586,0.0604,0.0645,0.0596,0.0597,0.0495,0.0273,0.0098,-0.0284,-0.0385,-0.0621,-0.0675,-0.0531,-0.0593,-0.059,-0.057,-0.0735,-0.0731,-0.0728,-0.0725,-0.0723,0,0.0205,0.0215,0.0323,0.0359,0.0424,0.0535,0.0556,0.0639,0.0606,0.0538,0.0442,0.0321,0.0266,-0.0087,-0.028,-0.0479,-0.0563,-0.0599,-0.0591,-0.0519,-0.0591,-0.0575,-0.056,-0.0665,-0.0663,-0.0661,-0.0659,0,0.0129,0.0161,0.0211,0.0311,0.038,0.0425,0.049,0.0489,0.0467,0.0465,0.0403,0.0416,0.0156,0.0013,-0.018,-0.0327,-0.0533,-0.0555,-0.0652,-0.0608,-0.0451,-0.052,-0.051,-0.064,-0.0642,-0.0644,-0.0645,-0.0645,0.0044,0.0066,0.0126,0.0238,0.0298,0.0333,0.038,0.0396,0.0429,0.0441,0.0418,0.0466,0.0206,0.0053,-0.0146,-0.0332,-0.0382,-0.0499,-0.051,-0.0522,-0.0406,-0.0246,-0.0371,-0.0371,-0.0372,-0.0372,-0.0372,0,-0.0069,0.0013,0.0045,0.016,0.0198,0.0299,0.0304,0.0355,0.044,0.0495,0.0605,0.047,0.0363,0.0132,-0.0124,-0.0296,-0.0362,-0.034,-0.0436,-0.0453,-0.0468,-0.0353,-0.0303,-0.0303,-0.0303,-0.0303,0,0,-0.0111,-0.0095,-0.0039,0.0052,0.0168,0.0223,0.0263,0.0392,0.0479,0.0633,0.0711,0.0759,0.0443,0.0251,-0.0014,-0.0137,-0.0233,-0.0143,-0.0186,-0.0284,-0.0296,-0.0554,-0.0391,0,0,0,0,0]}],[{"header":{"parameterUnit":"m.s-1","parameterCategory":2,"la1":30.2991,"la2":30.254,"lo1":-89.0895,"lo2":-89.0444,"dy":0.0017,"dx":0.0017,"nx":28,"ny":28,"refTime":"2024-07-16T03:00:00:Z","depth":"4","parameterNumber":2,"parameterNumberName":"U-component_of_CURRENTS"},"data":[0,0,0,0,0,0,0,0,0,0,0,0,0,0,0,0,0,0,0,0,0,0,0,0,0,0,0,0,0,0,0,0,0,0,0,0,0,0,0,0,0,0,0,0,0,0,0,0,0,0,0,0,0,0,0,0,0,0,0.0405,0.0406,0,0.0489,0.049,0.049,0.055,0.0551,0.0552,0.0553,0.0537,0.0535,0.0534,0,0,0,0,0,0,0,0,0,0,0,0,0,0.0288,0.0289,0.0405,0.0406,0.0408,0.0489,0.049,0.0491,0.055,0.0551,0.0552,0.0554,0.0537,0.0536,0.0534,0,0,0,0,0,0,0,0,0,0,0,0,0,0.0347,0.029,0.0405,0.0452,0.0457,0.0489,0.049,0.0491,0.055,0.0551,0.0553,0.0554,0.0538,0.0536,0.0534,0.0491,0,0,0.0528,0.0527,0,0,0,0,0,0,0,0,0.0343,0.035,0.0443,0.0449,0.0455,0.0516,0.0443,0.0488,0.0549,0.0509,0.0553,0.0555,0.0523,0.0522,0.0528,0.0491,0.049,0.0527,0.0526,0.0525,0.0525,0,0,0,0,0,0,0,0.0339,0.0347,0.0433,0.0445,0.0452,0.0467,0.0476,0.0452,0.05,0.0512,0.0518,0.0536,0.0525,0.053,0.0528,0.049,0.0527,0.0526,0.0524,0.0524,0.0501,0.0502,0,0,0,0,0,0,0.0339,0.0343,0.043,0.0436,0.0408,0.0468,0.0478,0.049,0.0503,0.0509,0.0535,0.0539,0.0533,0.053,0.0528,0.0584,0.0525,0.0523,0.0522,0.05,0.0501,0.0502,0,0,0,0,0,0,0.0336,0.0345,0.0427,0.0396,0.0408,0.0469,0.0481,0.0491,0.0547,0.0522,0.0525,0.0588,0.0534,0.053,0.0544,0.058,0.0522,0.0521,0.05,0.0501,0.0502,0.0628,0,0,0,0,0,0,0.0332,0.0344,0.0368,0.0396,0.041,0.048,0.0481,0.0492,0.0555,0.0563,0.0567,0.0564,0.0535,0.0547,0.0542,0.0576,0.0519,0.0499,0.05,0.0501,0.0623,0.0633,0.0642,0,0,0,0,0,0.0327,0.0348,0.0368,0.038,0.0436,0.0482,0.0491,0.0534,0.0557,0.0589,0.0589,0.0567,0.055,0.0546,0.054,0.0574,0.0498,0.05,0.0501,0.0619,0.0631,0.0642,0,0,0,0,0,0,0.0311,0.0358,0.038,0.0416,0.0465,0.0495,0.0538,0.0562,0.0589,0.0606,0.0577,0.0574,0.0596,0.0562,0.0558,0.0567,0.0519,0.0519,0.0611,0.0622,0.0631,0.0648,0.0517,0,0,0,0,0,0.0319,0.0356,0.0397,0.0437,0.0465,0.0511,0.0543,0.0574,0.0596,0.0615,0.0617,0.0606,0.0587,0.0591,0.0568,0.0577,0.0554,0.059,0.06,0.0608,0.0615,0.0608,0.0618,0.0507,0.0507,0.0506,0,0,0.0325,0.0361,0.0382,0.0439,0.0484,0.0524,0.0535,0.0602,0.0639,0.0602,0.066,0.0643,0.0595,0.0607,0.0613,0.0592,0.0632,0.061,0.0618,0.062,0.061,0.0621,0.0631,0.0507,0.0507,0.0507,0,0,0.0352,0.0394,0.0431,0.0473,0.055,0.0571,0.0603,0.0659,0.0695,0.0735,0.0712,0.0724,0.071,0.0687,0.0666,0.0709,0.068,0.0705,0.0774,0.0768,0.0778,0.0786,0.0796,0.0803,0.0714,0.0714,0.0714,0,0.0367,0.0411,0.0453,0.0501,0.0543,0.0598,0.0644,0.0679,0.0735,0.0758,0.0772,0.0769,0.0743,0.0738,0.076,0.0734,0.0732,0.0742,0.0783,0.0791,0.0797,0.0804,0.0812,0.072,0.072,0.0719,0.0718,0,0.0405,0.0459,0.0493,0.0564,0.061,0.0669,0.0717,0.0772,0.0821,0.0846,0.0889,0.0867,0.0864,0.086,0.0827,0.0855,0.0841,0.0798,0.0764,0.0816,0.082,0.0826,0.0729,0.0727,0.0725,0.0724,0,0,0.0393,0.0497,0.0516,0.056,0.0652,0.0688,0.0759,0.0822,0.0873,0.0927,0.0979,0.097,0.0984,0.096,0.0932,0.0936,0.099,0.0904,0.0901,0.093,0.1001,0.0856,0.0847,0.0964,0.0965,0.0966,0.0996,0,0.0422,0.0508,0.0553,0.064,0.0687,0.0754,0.0811,0.0875,0.0933,0.0994,0.1001,0.1037,0.1013,0.1033,0.1035,0.0993,0.1006,0.0987,0.093,0.0928,0.0806,0.0848,0.0969,0.1,0.1001,0.1001,0.1002,0,0.0436,0.0497,0.0585,0.0681,0.071,0.0773,0.0877,0.0934,0.1017,0.1065,0.1114,0.1121,0.1149,0.1117,0.1108,0.1104,0.1071,0.104,0.1039,0.0859,0.0791,0.0925,0.1011,0.101,0.1009,0.1009,0.1008,0,0.0395,0.0512,0.0585,0.0622,0.0739,0.0803,0.0873,0.0969,0.1023,0.1127,0.1171,0.1205,0.1231,0.1206,0.1143,0.1147,0.1112,0.1096,0.0938,0.0929,0.0998,0.0988,0.1087,0.1087,0.1087,0.1087,0.1087,0,0.0383,0.0445,0.0586,0.0625,0.0722,0.081,0.0912,0.099,0.1092,0.1131,0.1215,0.1203,0.1256,0.1227,0.1175,0.1061,0.1135,0.0958,0.0921,0.1052,0.1048,0.1003,0.0993,0.1088,0.1088,0.1088,0.1088,0,0.032,0.0416,0.0503,0.065,0.0709,0.0783,0.0937,0.099,0.111,0.1164,0.1202,0.1241,0.118,0.1184,0.1131,0.1081,0.0993,0.0926,0.1081,0.1051,0.0825,0.0821,0.0799,0.0794,0.079,0.0786,0.0783,0,0.0294,0.0336,0.0508,0.0577,0.0661,0.0786,0.0861,0.0996,0.1027,0.1115,0.1098,0.111,0.1099,0.0942,0.0931,0.0865,0.0822,0.0848,0.0838,0.0827,0.0794,0.0797,0.0798,0.0777,0.0775,0.0774,0.0773,0,0.0233,0.031,0.0379,0.0523,0.0631,0.0717,0.0822,0.082,0.0931,0.1055,0.0985,0.0957,0.0874,0.0811,0.0783,0.0708,0.0883,0.0804,0.0813,0.0803,0.0799,0.0772,0.0778,0.0759,0.0761,0.0762,0.0763,0,0.0192,0.022,0.033,0.0449,0.0577,0.0616,0.0669,0.0694,0.0744,0.0847,0.078,0.0769,0.0821,0.0716,0.0639,0.061,0.0598,0.0631,0.0649,0.0666,0.0598,0.0571,0.0434,0,0,0,0,0,0.0151,0.0173,0.0252,0.037,0.049,0.0568,0.063,0.0663,0.0738,0.0675,0.0747,0.065,0.0582,0.0537,0.0469,0.0523,0.0575,0.0442,0.0617,0.0677,0.0694,0.062,0,0,0,0,0,0,0.0121,0.0184,0.0208,0.0293,0.0363,0.0462,0.049,0.0529,0.048,0.057,0.0499,0.0642,0.053,0.0621,0.047,0.0467,0.0567,0.0461,0.046,0.0667,0.0683,0.0696,0.0627,0,0,0,0,0]},{"header":{"parameterUnit":"m.s-1","parameterCategory":2,"la1":30.2991,"la2":30.254,"lo1":-89.0895,"lo2":-89.0444,"dy":0.0017,"dx":0.0017,"nx":28,"ny":28,"refTime":"2024-07-16T03:00:00:Z","depth":"4","parameterNumber":3,"parameterNumberName":"V-component_of_CURRENTS"},"data":[0,0,0,0,0,0,0,0,0,0,0,0,0,0,0,0,0,0,0,0,0,0,0,0,0,0,0,0,0,0,0,0,0,0,0,0,0,0,0,0,0,0,0,0,0,0,0,0,0,0,0,0,0,0,0,0,0,0,0.0152,0.0151,0,0.0008,0.0005,0.0003,-0.0151,-0.0152,-0.0154,-0.0156,-0.0294,-0.0296,-0.0298,0,0,0,0,0,0,0,0,0,0,0,0,0,0.0215,0.0215,0.0153,0.0151,0.015,0.0008,0.0005,0.0003,-0.015,-0.0152,-0.0155,-0.0156,-0.0293,-0.0296,-0.0298,0,0,0,0,0,0,0,0,0,0,0,0,0,0.0136,0.0215,0.0153,0.006,0.0051,0.0008,0.0005,0.0002,-0.015,-0.0153,-0.0155,-0.0157,-0.0292,-0.0295,-0.0299,-0.0267,0,0,-0.0308,-0.031,0,0,0,0,0,0,0,0,0.0141,0.0133,0.0075,0.0067,0.0056,-0.0052,-0.0023,-0.0086,-0.0149,-0.0079,-0.0156,-0.0159,-0.0207,-0.0217,-0.0246,-0.0274,-0.028,-0.0308,-0.031,-0.0312,-0.0313,0,0,0,0,0,0,0,0.0147,0.0138,0.009,0.0074,0.0062,-0.0002,-0.0016,-0.0037,-0.0131,-0.0086,-0.0096,-0.0103,-0.0213,-0.0243,-0.0251,-0.0282,-0.0308,-0.0311,-0.0313,-0.0314,-0.039,-0.039,0,0,0,0,0,0,0.0182,0.0144,0.0094,0.0086,0.0099,0.0,-0.0016,-0.0019,-0.0131,-0.0149,-0.01,-0.0109,-0.0236,-0.0247,-0.0256,-0.0327,-0.0312,-0.0315,-0.0317,-0.039,-0.039,-0.039,0,0,0,0,0,0,0.0184,0.018,0.01,0.0115,0.0101,0.0003,-0.0,-0.002,-0.009,-0.0142,-0.0162,-0.0154,-0.0239,-0.0252,-0.0312,-0.033,-0.0316,-0.0319,-0.039,-0.039,-0.039,-0.0404,0,0,0,0,0,0,0.0187,0.0181,0.0177,0.0118,0.0102,0.0055,0.0002,-0.0021,-0.0085,-0.01,-0.0192,-0.0206,-0.0242,-0.0307,-0.0315,-0.0334,-0.0321,-0.039,-0.039,-0.039,-0.0403,-0.0405,-0.0406,0,0,0,0,0,0.019,0.02,0.0178,0.0171,0.0105,0.0055,0.0039,-0.0043,-0.0085,-0.0117,-0.0183,-0.0205,-0.0314,-0.031,-0.0319,-0.034,-0.039,-0.039,-0.039,-0.0403,-0.0404,-0.0406,0,0,0,0,0,0,0.0213,0.0185,0.0159,0.0156,0.0101,0.003,-0.0001,-0.0053,-0.0131,-0.0157,-0.0212,-0.0229,-0.0288,-0.0302,-0.0297,-0.0359,-0.0352,-0.0354,-0.0359,-0.036,-0.0361,-0.0353,-0.0324,0,0,0,0,0,0.0227,0.0226,0.0178,0.0168,0.0147,0.0069,0.0034,-0.0026,-0.009,-0.0132,-0.0198,-0.0252,-0.0286,-0.0318,-0.0354,-0.0385,-0.0377,-0.0401,-0.0402,-0.0403,-0.0401,-0.039,-0.039,-0.0391,-0.0391,-0.0391,0,0,0.023,0.0217,0.0211,0.0173,0.0124,0.0091,0.0037,-0.0024,-0.0066,-0.0127,-0.0216,-0.0263,-0.0295,-0.0344,-0.0369,-0.0366,-0.04,-0.0403,-0.0404,-0.0401,-0.039,-0.039,-0.039,-0.0391,-0.0391,-0.0391,0,0,0.0237,0.0226,0.0219,0.0186,0.0123,0.0085,0.0066,-0.0025,-0.0083,-0.0159,-0.0207,-0.0261,-0.0338,-0.036,-0.0376,-0.0394,-0.0405,-0.0415,-0.042,-0.041,-0.0409,-0.0409,-0.0404,-0.0403,-0.0416,-0.0416,-0.0416,0,0.023,0.023,0.0204,0.0185,0.0161,0.0086,0.0058,0.0004,-0.0106,-0.0137,-0.0193,-0.0296,-0.0337,-0.0358,-0.0387,-0.0397,-0.0401,-0.0416,-0.0411,-0.0411,-0.041,-0.0405,-0.0404,-0.0417,-0.0417,-0.0417,-0.0417,0,0.023,0.022,0.0213,0.0178,0.0147,0.0111,0.0052,-0.0007,-0.0084,-0.014,-0.0216,-0.0284,-0.0342,-0.0363,-0.0397,-0.041,-0.0418,-0.0413,-0.0408,-0.0411,-0.0405,-0.0404,-0.0418,-0.0418,-0.0417,-0.0417,0,0,0.0228,0.0216,0.0207,0.0197,0.0141,0.0115,0.0068,0.0012,-0.0015,-0.0135,-0.0174,-0.0264,-0.0319,-0.0339,-0.038,-0.039,-0.0407,-0.0419,-0.0418,-0.0414,-0.04,-0.0384,-0.0381,-0.0412,-0.0412,-0.0412,-0.04,0,0.0221,0.0213,0.0203,0.0177,0.0166,0.0115,0.0089,0.0029,-0.0037,-0.0092,-0.0165,-0.0221,-0.0299,-0.0338,-0.0366,-0.0396,-0.0404,-0.0411,-0.0397,-0.0396,-0.0382,-0.0378,-0.0411,-0.0398,-0.0398,-0.0398,-0.0398,0,0.0214,0.0217,0.0204,0.0197,0.0185,0.0154,0.0115,0.0079,0.0015,-0.0037,-0.011,-0.0171,-0.0233,-0.0285,-0.0345,-0.0356,-0.0386,-0.0404,-0.0403,-0.0381,-0.0377,-0.0393,-0.0395,-0.0395,-0.0395,-0.0395,-0.0396,0,0.0235,0.0216,0.0216,0.0206,0.0183,0.0156,0.0129,0.0078,0.0075,-0.0005,-0.0016,-0.0112,-0.0149,-0.0216,-0.0305,-0.0329,-0.0344,-0.0362,-0.0364,-0.0364,-0.0376,-0.0376,-0.0372,-0.0372,-0.0372,-0.0372,-0.0372,0,0.0244,0.0241,0.0217,0.0216,0.021,0.0172,0.0161,0.0123,0.0102,0.0117,0.0007,-0.0017,-0.0136,-0.0178,-0.0267,-0.0319,-0.0313,-0.0362,-0.0356,-0.0383,-0.0384,-0.0375,-0.0376,-0.0371,-0.0372,-0.0372,-0.0372,0,0.0263,0.0252,0.0258,0.0233,0.0221,0.0208,0.0198,0.0212,0.0171,0.0191,0.0171,0.0073,-0.0018,-0.0104,-0.0191,-0.0242,-0.0299,-0.0306,-0.0326,-0.0321,-0.0337,-0.0339,-0.0314,-0.0313,-0.0313,-0.0312,-0.0312,0,0.0273,0.0278,0.0275,0.0284,0.0264,0.0247,0.0259,0.0235,0.0264,0.0233,0.0257,0.017,0.009,-0.0042,-0.0142,-0.0257,-0.0275,-0.0278,-0.0328,-0.0333,-0.033,-0.0333,-0.0335,-0.0311,-0.0311,-0.0311,-0.031,0,0.0297,0.0295,0.0308,0.0334,0.0339,0.036,0.0363,0.0368,0.036,0.038,0.0292,0.0184,0.0103,-0.0058,-0.0118,-0.0212,-0.0271,-0.0273,-0.0275,-0.0322,-0.0329,-0.0327,-0.033,-0.0308,-0.0309,-0.0309,-0.0309,0,0.0316,0.0334,0.0358,0.0369,0.0409,0.0416,0.0404,0.0397,0.0402,0.0368,0.0331,0.0187,0.0119,-0.0031,-0.0108,-0.0178,-0.0212,-0.023,-0.0236,-0.0239,-0.0229,-0.0227,-0.0164,0,0,0,0,0,0.0331,0.0354,0.0389,0.0402,0.0453,0.0465,0.0473,0.0462,0.0451,0.0404,0.036,0.0256,0.0086,-0.0016,-0.009,-0.0086,-0.0202,-0.0168,-0.022,-0.0296,-0.0299,-0.03,0,0,0,0,0,0,0.0342,0.0387,0.0395,0.0432,0.0448,0.0499,0.0485,0.0473,0.0418,0.0386,0.0266,0.0276,0.0085,0.0132,-0.0082,-0.01,-0.0136,-0.0229,-0.023,-0.0295,-0.0297,-0.0299,-0.0301,0,0,0,0,0]}]]